Tracking 17143 objects as of 26-May-2015
HD Live streaming from Space Station

BONUM 1

Track BONUM 1 now!
BONUM 1 is classified as:


NORAD ID: 25546
Int'l Code: 1998-068A
Perigee: 36,128.9 km
Apogee: 36,157.1 km
Inclination: 2.7 °
Period: 1,454.0 minutes
Semi major axis: 42513 km
RCS: 0.003 m2 (small)
Launch date: November 22, 1998
Source: Commonwealth of Independent States (former USSR) (CIS)

Television broadcasting; 8 Ku-band, Siberia or Europe, selected.
Your satellite tracking list
Your tracking list is empty





NASA's NSSDC Master Catalog

Two Line Element Set (TLE):
1 25546U 98068A   15142.45899838 -.00000047  00000-0  10000-3 0  9996
2 25546 002.7460 071.1386 0003307 330.1315 029.4333 00.99038695 60489

Source of the keplerian elements: AFSPC

N2YO: 285